[[{"header":{"parameterUnit":"m.s-1","parameterCategory":1,"la1":30.2991,"la2":30.254,"lo1":-89.0895,"lo2":-89.0444,"dy":0.0017,"dx":0.0017,"nx":28,"ny":28,"refTime":"2025-03-14T09:00:00:Z","depth":0,"parameterNumber":2,"parameterNumberName":"U-component_of_WINDS"},"data":[0,0,0,0,0,0,0,0,0,0,0,0,0,0,0,0,0,0,0,0,0,0,0,0,0,0,0,0,0,0,0,0,0,0,0,0,0,0,0,0,0,0,0,0,0,0,0,0,0,0,0,0,0,0,0,0,0,0,-4.1925,-4.1927,0,-4.2074,-4.2076,-4.2077,-4.2115,-4.2114,-4.2113,-4.2112,-4.2264,-4.2269,-4.2273,0,0,0,0,0,0,0,0,0,0,0,0,0,-4.1674,-4.1679,-4.1925,-4.1927,-4.1929,-4.2074,-4.2076,-4.2078,-4.2115,-4.2114,-4.2113,-4.2112,-4.2262,-4.2268,-4.2274,0,0,0,0,0,0,0,0,0,0,0,0,0,-4.1799,-4.168,-4.1925,-4.1965,-4.197,-4.2073,-4.2076,-4.2078,-4.2115,-4.2114,-4.2113,-4.2111,-4.226,-4.2267,-4.2275,-4.2348,0,0,-4.2297,-4.23,0,0,0,0,0,0,0,0,-4.1792,-4.1808,-4.1957,-4.1963,-4.1968,-4.2075,-4.2043,-4.2169,-4.2116,-4.206,-4.2112,-4.2111,-4.2202,-4.2214,-4.2245,-4.2355,-4.2362,-4.2298,-4.2302,-4.2305,-4.2307,0,0,0,0,0,0,0,-4.1783,-4.1802,-4.1984,-4.196,-4.1966,-4.1976,-4.1992,-4.2067,-4.2137,-4.2065,-4.2068,-4.2085,-4.2205,-4.2238,-4.2249,-4.2364,-4.2298,-4.2304,-4.2309,-4.2312,-4.2542,-4.2544,0,0,0,0,0,0,-4.1768,-4.1795,-4.1979,-4.1989,-4.1875,-4.1982,-4.2,-4.2042,-4.2136,-4.215,-4.2086,-4.2086,-4.2226,-4.224,-4.2254,-4.2346,-4.2305,-4.2312,-4.2316,-4.254,-4.2543,-4.2544,0,0,0,0,0,0,-4.1762,-4.1784,-4.1973,-4.1893,-4.1917,-4.1987,-4.2035,-4.2046,-4.2079,-4.2153,-4.2165,-4.2107,-4.2225,-4.2244,-4.2325,-4.2352,-4.2316,-4.2322,-4.2538,-4.2541,-4.2543,-4.253,0,0,0,0,0,0,-4.1755,-4.1782,-4.181,-4.1893,-4.1922,-4.2041,-4.2036,-4.2049,-4.2091,-4.2093,-4.2175,-4.2188,-4.2226,-4.2313,-4.2332,-4.2361,-4.2328,-4.2536,-4.254,-4.2543,-4.2528,-4.2532,-4.2535,0,0,0,0,0,-4.1746,-4.18,-4.1811,-4.1833,-4.1959,-4.2042,-4.2059,-4.2102,-4.2093,-4.2122,-4.217,-4.2185,-4.2346,-4.2321,-4.2342,-4.2374,-4.2535,-4.2539,-4.2542,-4.2527,-4.2531,-4.2535,0,0,0,0,0,0,-4.1718,-4.1812,-4.1825,-4.1908,-4.1967,-4.2049,-4.2087,-4.2105,-4.2167,-4.2166,-4.2217,-4.2235,-4.2312,-4.2352,-4.2322,-4.2451,-4.2441,-4.2449,-4.2421,-4.2426,-4.2429,-4.2417,-4.2334,0,0,0,0,0,-4.1722,-4.1782,-4.1861,-4.1926,-4.1955,-4.2016,-4.2054,-4.2082,-4.2145,-4.217,-4.2224,-4.2284,-4.2349,-4.239,-4.2453,-4.2535,-4.2553,-4.2568,-4.2571,-4.2573,-4.2579,-4.2625,-4.2632,-4.2557,-4.2557,-4.2557,0,0,-4.1729,-4.1788,-4.1823,-4.1922,-4.1971,-4.2033,-4.2037,-4.2101,-4.2147,-4.218,-4.2259,-4.2301,-4.2372,-4.2453,-4.2492,-4.2489,-4.2604,-4.2578,-4.2579,-4.2584,-4.263,-4.2637,-4.2643,-4.256,-4.2559,-4.2559,0,0,-4.1775,-4.1826,-4.1886,-4.1935,-4.201,-4.205,-4.2064,-4.2144,-4.2173,-4.2253,-4.2279,-4.2335,-4.2445,-4.2495,-4.2534,-4.26,-4.2616,-4.2619,-4.2636,-4.268,-4.2686,-4.2691,-4.2714,-4.2721,-4.2625,-4.2625,-4.2625,0,-4.1775,-4.1868,-4.1914,-4.1978,-4.2021,-4.2054,-4.2115,-4.2161,-4.2252,-4.2281,-4.2277,-4.2416,-4.2466,-4.2559,-4.2575,-4.2607,-4.2625,-4.2609,-4.2681,-4.2687,-4.2693,-4.2715,-4.2724,-4.2625,-4.2625,-4.2625,-4.2625,0,-4.1864,-4.1929,-4.1969,-4.2056,-4.2104,-4.2166,-4.2221,-4.2264,-4.2288,-4.2329,-4.2411,-4.2473,-4.2549,-4.2574,-4.2598,-4.2671,-4.2667,-4.2671,-4.2662,-4.2699,-4.2721,-4.273,-4.2625,-4.2625,-4.2625,-4.2625,0,0,-4.1895,-4.2008,-4.2021,-4.2062,-4.2147,-4.2198,-4.2262,-4.2337,-4.2372,-4.2435,-4.2489,-4.2582,-4.2587,-4.2632,-4.2663,-4.2702,-4.2749,-4.2702,-4.2704,-4.2707,-4.2833,-4.2827,-4.2836,-4.2761,-4.2763,-4.2765,-4.2826,0,-4.195,-4.2065,-4.2108,-4.2202,-4.2262,-4.2296,-4.2352,-4.241,-4.245,-4.2507,-4.2552,-4.2617,-4.2619,-4.2646,-4.2687,-4.2735,-4.2775,-4.2731,-4.2812,-4.2814,-4.2791,-4.2848,-4.2843,-4.2898,-4.2835,-4.2837,-4.2838,0,-4.2029,-4.2092,-4.2192,-4.227,-4.2297,-4.2346,-4.2419,-4.2473,-4.2541,-4.2567,-4.2618,-4.2646,-4.2715,-4.2702,-4.2797,-4.2766,-4.2803,-4.2831,-4.2835,-4.2842,-4.2827,-4.2856,-4.2916,-4.2924,-4.2852,-4.285,-4.2849,0,-4.2039,-4.215,-4.2224,-4.2257,-4.2351,-4.2385,-4.2425,-4.2491,-4.2534,-4.2598,-4.2626,-4.2697,-4.2735,-4.279,-4.2836,-4.2823,-4.2927,-4.2918,-4.295,-4.2949,-4.2969,-4.2966,-4.3034,-4.2994,-4.2994,-4.2994,-4.2994,0,-4.2095,-4.2154,-4.223,-4.2275,-4.2343,-4.2393,-4.2459,-4.2502,-4.2561,-4.2615,-4.2649,-4.2699,-4.2759,-4.2817,-4.2854,-4.2927,-4.2944,-4.2967,-4.2976,-4.2963,-4.296,-4.2986,-4.2983,-4.2996,-4.2996,-4.2995,-4.2995,0,-4.2117,-4.217,-4.2253,-4.2335,-4.2357,-4.2404,-4.2474,-4.252,-4.2562,-4.263,-4.2649,-4.2716,-4.2786,-4.2839,-4.293,-4.2955,-4.3032,-4.3042,-4.3009,-4.3013,-4.3041,-4.3037,-4.3127,-4.3141,-4.3092,-4.3093,-4.3093,0,-4.2149,-4.2195,-4.2283,-4.2322,-4.2362,-4.2424,-4.2468,-4.252,-4.2564,-4.2645,-4.268,-4.2753,-4.2814,-4.2925,-4.2981,-4.3051,-4.3062,-4.3089,-4.3073,-4.3058,-4.3061,-4.3057,-4.3062,-4.309,-4.309,-4.3091,-4.3091,0,-4.2198,-4.2222,-4.2284,-4.2355,-4.2407,-4.2465,-4.2524,-4.2554,-4.2617,-4.2665,-4.2737,-4.2784,-4.2878,-4.2949,-4.3025,-4.3067,-4.3089,-4.3096,-4.3107,-4.3093,-4.3072,-4.3083,-4.3013,-4.3093,-4.3093,-4.3093,-4.3093,-4.3092,-4.2226,-4.2269,-4.2337,-4.2405,-4.2455,-4.2509,-4.2556,-4.2605,-4.2666,-4.2745,-4.2773,-4.2847,-4.2914,-4.3019,-4.3062,-4.3121,-4.3121,-4.3136,-4.314,-4.3143,-4.3141,-4.3063,-4.3135,-4.3135,-4.3135,-4.3135,-4.3135,0,-4.2276,-4.2322,-4.2384,-4.2466,-4.2519,-4.2536,-4.2603,-4.2646,-4.2711,-4.2772,-4.2831,-4.2915,-4.2985,-4.3047,-4.312,-4.3155,-4.3167,-4.3172,-4.3169,-4.3179,-4.3138,-4.312,-4.3161,-4.3161,-4.3161,-4.3161,-4.3161,-4.3161,-4.2309,-4.2382,-4.2414,-4.2513,-4.2559,-4.2632,-4.2668,-4.2719,-4.2768,-4.2859,-4.2917,-4.2958,-4.3019,-4.3097,-4.3162,-4.3179,-4.3203,-4.3206,-4.3225,-4.3185,-4.3182,-4.3178,-4.3162,-4.3211,-4.3211,-4.3261,-4.3261,-4.3261]},{"header":{"parameterUnit":"m.s-1","parameterCategory":1,"la1":30.2991,"la2":30.254,"lo1":-89.0895,"lo2":-89.0444,"dy":0.0017,"dx":0.0017,"nx":28,"ny":28,"refTime":"2025-03-14T09:00:00:Z","depth":0,"parameterNumber":3,"parameterNumberName":"V-component_of_WINDS"},"data":[0,0,0,0,0,0,0,0,0,0,0,0,0,0,0,0,0,0,0,0,0,0,0,0,0,0,0,0,0,0,0,0,0,0,0,0,0,0,0,0,0,0,0,0,0,0,0,0,0,0,0,0,0,0,0,0,0,0,6.6224,6.6225,0,6.6283,6.6284,6.6285,6.624,6.6238,6.6237,6.6235,6.6291,6.6294,6.6297,0,0,0,0,0,0,0,0,0,0,0,0,0,6.6069,6.6072,6.6224,6.6225,6.6226,6.6283,6.6284,6.6285,6.6241,6.6238,6.6236,6.6234,6.629,6.6294,6.6297,0,0,0,0,0,0,0,0,0,0,0,0,0,6.6133,6.6073,6.6224,6.6211,6.621,6.6283,6.6284,6.6285,6.6241,6.6238,6.6235,6.6233,6.6288,6.6293,6.6298,6.6386,0,0,6.6313,6.6315,0,0,0,0,0,0,0,0,6.613,6.6139,6.6212,6.6212,6.6211,6.6252,6.625,6.6319,6.6242,6.6229,6.6235,6.6231,6.628,6.6285,6.6302,6.6389,6.6391,6.6313,6.6316,6.6319,6.632,0,0,0,0,0,0,0,6.6125,6.6136,6.6247,6.6213,6.6212,6.6201,6.6206,6.6263,6.627,6.623,6.6227,6.6235,6.6279,6.6298,6.6303,6.6392,6.6313,6.6318,6.6321,6.6323,6.6556,6.6559,0,0,0,0,0,0,6.6123,6.6133,6.6245,6.6249,6.6163,6.6206,6.6212,6.6241,6.6269,6.6271,6.6237,6.6233,6.6291,6.6298,6.6305,6.6413,6.6319,6.6323,6.6326,6.6553,6.6557,6.656,0,0,0,0,0,0,6.6119,6.6133,6.6243,6.619,6.6203,6.6211,6.6245,6.6244,6.6263,6.6275,6.6275,6.6256,6.6289,6.6298,6.6367,6.6414,6.6325,6.633,6.6549,6.6554,6.6558,6.6626,0,0,0,0,0,0,6.6115,6.6132,6.6166,6.6191,6.6206,6.6305,6.6247,6.6247,6.6272,6.6267,6.6292,6.6293,6.6287,6.636,6.6372,6.6419,6.6334,6.6545,6.6551,6.6557,6.662,6.6633,6.6644,0,0,0,0,0,6.611,6.6181,6.6168,6.6182,6.6249,6.6308,6.6316,6.6309,6.6276,6.631,6.6318,6.6292,6.6406,6.6368,6.6381,6.643,6.6542,6.6549,6.6556,6.6615,6.663,6.6644,0,0,0,0,0,0,6.6159,6.6184,6.617,6.6252,6.6279,6.63,6.6343,6.6326,6.6361,6.6354,6.6342,6.6348,6.6422,6.6432,6.6388,6.6518,6.6469,6.6479,6.6509,6.6524,6.6535,6.6532,6.6338,0,0,0,0,0,6.618,6.6227,6.6245,6.6316,6.633,6.6335,6.636,6.6353,6.6379,6.6389,6.6402,6.6427,6.6469,6.6496,6.6535,6.6621,6.6627,6.6661,6.6673,6.6683,6.6692,6.6741,6.6757,6.6584,6.6584,6.6584,0,0,6.6223,6.6242,6.6272,6.6327,6.6346,6.6395,6.6344,6.6397,6.6432,6.6396,6.6464,6.6474,6.6501,6.658,6.6615,6.6591,6.6741,6.6692,6.67,6.6704,6.675,6.6767,6.6781,6.6589,6.6588,6.6587,0,0,6.6326,6.6345,6.6407,6.6429,6.646,6.6463,6.6478,6.6503,6.651,6.6577,6.6552,6.6593,6.6665,6.6687,6.6707,6.6821,6.68,6.6834,6.6897,6.6944,6.6958,6.697,6.7013,6.7028,6.6843,6.6843,6.6843,0,6.6375,6.6448,6.6441,6.6497,6.6522,6.6494,6.6557,6.6578,6.6619,6.6637,6.661,6.6701,6.6717,6.6802,6.683,6.6847,6.6864,6.6831,6.6957,6.6969,6.698,6.7021,6.7037,6.6847,6.6847,6.6846,6.6846,0,6.6508,6.6559,6.6605,6.665,6.668,6.6739,6.674,6.6771,6.6762,6.6768,6.6838,6.6856,6.69,6.6919,6.6909,6.7003,6.6987,6.6959,6.691,6.7001,6.7039,6.7055,6.6853,6.6852,6.685,6.6849,0,0,6.6643,6.6685,6.6702,6.6723,6.6757,6.6796,6.6854,6.6898,6.6927,6.6956,6.7005,6.7068,6.7042,6.7065,6.7057,6.7099,6.7192,6.7065,6.7066,6.709,6.7299,6.7322,6.734,6.7177,6.718,6.7182,6.7297,0,6.675,6.6854,6.685,6.6946,6.6995,6.697,6.702,6.7046,6.7053,6.7094,6.7101,6.7147,6.7109,6.7123,6.7163,6.7172,6.7234,6.7163,6.7223,6.7225,6.7219,6.736,6.7384,6.7492,6.7312,6.7315,6.7316,0,6.6888,6.6927,6.7029,6.7058,6.7078,6.7124,6.7166,6.7206,6.7235,6.7237,6.7265,6.7251,6.7309,6.7258,6.7339,6.7292,6.7316,6.7324,6.7328,6.7334,6.7278,6.7372,6.7526,6.7543,6.7339,6.7338,6.7336,0,6.6981,6.7057,6.7129,6.7147,6.7182,6.7215,6.7231,6.7257,6.7285,6.7321,6.734,6.7381,6.7404,6.7437,6.7434,6.7397,6.7518,6.7466,6.7522,6.7522,6.755,6.7548,6.7711,6.7562,6.7562,6.7561,6.7561,0,6.7101,6.7165,6.7171,6.7215,6.7287,6.7281,6.7351,6.7363,6.7388,6.7434,6.7413,6.7456,6.745,6.7493,6.7491,6.756,6.757,6.7574,6.7573,6.7577,6.7577,6.7594,6.7587,6.7566,6.7565,6.7564,6.7563,0,6.7217,6.7223,6.73,6.7328,6.7336,6.7388,6.7411,6.7453,6.7459,6.7518,6.7531,6.754,6.7591,6.7592,6.7648,6.7647,6.7732,6.7721,6.7723,6.7722,6.7779,6.7775,6.796,6.7985,6.7818,6.7819,6.7821,0,6.7295,6.7344,6.7378,6.7409,6.7428,6.7477,6.7506,6.7503,6.7534,6.7572,6.761,6.7659,6.7698,6.7779,6.779,6.7834,6.7826,6.7888,6.7832,6.7835,6.7829,6.7828,6.7833,6.7899,6.7901,6.7902,6.7904,0,6.7433,6.7435,6.7479,6.7525,6.7562,6.7597,6.763,6.7656,6.7656,6.7692,6.7745,6.7776,6.7835,6.7885,6.7927,6.7942,6.7924,6.7921,6.7937,6.7943,6.7943,6.7946,6.7755,6.7917,6.7916,6.7915,6.7914,6.7913,6.7534,6.7578,6.761,6.7661,6.7686,6.7718,6.776,6.7772,6.7817,6.7867,6.7861,6.792,6.7949,6.8005,6.8024,6.807,6.8048,6.807,6.8076,6.8083,6.809,6.7934,6.8077,6.8077,6.8076,6.8076,6.8076,0,6.7674,6.7694,6.774,6.7789,6.7829,6.781,6.7846,6.788,6.7933,6.7963,6.8003,6.8064,6.8112,6.8128,6.8175,6.8208,6.8201,6.8221,6.8219,6.8224,6.8105,6.8088,6.8226,6.8226,6.8226,6.8226,6.8226,6.8226,6.7751,6.7826,6.7831,6.7918,6.7936,6.7996,6.8019,6.8048,6.8072,6.8143,6.8184,6.8194,6.8219,6.8267,6.8311,6.8314,6.8333,6.8357,6.8357,6.8247,6.8232,6.8217,6.8201,6.8361,6.8361,6.8472,6.8473,6.8474]}]]